Home   Weather   Sacramento   Past weeks

Flag for USA Past Weather in Sacramento, California, USA — Yesterday and Last 2 Weeks

Now
68 °F

Clear.


Feels Like: 68 °F
Forecast: 53 / 85 °F
Wind: 9 mph from Southwest

Location: Mather Field

Current Time: May 27, 2017 at 11:55:26 pm

Latest Report: May 27, 2017 at 8:45 pm


Visibility: 10 mi

Pressure: 30.01 "Hg

Humidity: 56%

Dew Point: 52 °F

Location of SacramentoLocation

Past Weather in Sacramento — Graph

°F

Sacramento Temperature Yesterday

Maximum temperature yesterday: 70 °F (at 5:45 pm)
Minimum temperature yesterday: 48 °F (at 5:55 am)
Average temperature yesterday: 62 °F

High & Low Weather Summary for the Past Weeks

 TemperatureHumidityPressure
High99 °F (May 23, 3:49 pm)100% (May 13, 6:45 am)30.09 "Hg (May 13, 6:45 am)
Low41 °F (May 13, 4:55 am)16% (May 19, 5:45 pm)29.65 "Hg (May 24, 6:45 pm)
Average67 °F53%29.90 "Hg
* Reported May 12 8:45 pm — May 27 8:45 pm, Sacramento. Weather by CustomWeather, © 2017

Note: Actual official high and low records may vary slightly from our data, if they occured in-between our weather recording intervals... More about our weather records

Advertising

Sacramento Weather History for the Previous 24 Hours

Scroll right to see more
 ConditionsComfort  
Time TempWeatherWind HumidityBarometerVisibility
8:45 pm
Sat, May 27
68 °FClear.9 mph56%30.01 "Hg10 mi
6:45 pm77 °FSunny.8 mph42%30.00 "Hg10 mi
5:45 pm79 °FSunny.8 mph39%30.01 "Hg10 mi
4:45 pm79 °FSunny.7 mph39%30.01 "Hg10 mi
3:45 pm77 °FSunny.9 mph39%30.02 "Hg10 mi
2:45 pm77 °FSunny.8 mph39%30.03 "Hg10 mi
1:45 pm75 °FSunny.7 mph41%30.04 "Hg10 mi
11:45 am70 °FSunny.8 mph50%30.07 "Hg10 mi
10:45 am66 °FSunny.7 mph56%30.08 "Hg10 mi
9:45 am63 °FPassing clouds.7 mph64%30.08 "Hg10 mi
8:45 am59 °FPartly sunny.5 mph72%30.08 "Hg10 mi
7:45 am55 °FSunny.6 mph82%30.07 "Hg10 mi
6:45 am50 °FSunny.6 mph94%30.06 "Hg10 mi
5:45 am48 °FPassing clouds.6 mph94%30.04 "Hg10 mi
4:45 am48 °FClear.7 mph94%30.03 "Hg10 mi
3:45 am48 °FClear.7 mph94%30.03 "Hg10 mi
2:50 am50 °FClear.6 mph88%30.03 "Hg10 mi
Weather by CustomWeather, © 2017

See weather overviewHow to use our weather pages